| time (UTC) | temp F | wind direction | speed knots | gust knots | rain 1hr in | rain 24hr in | rain mn in | humidity % | barometer mb |
| 20260507061432 | 55 | 245 | 0.9 | 1.7 | 0.00 | 0.10 | 0.00 | 86 | 1005.7 |
| 20260507055932 | 55 | 71 | 0.0 | 1.7 | 0.00 | 0.10 | 0.00 | 86 | 1005.9 |
| 20260507054432 | 56 | 260 | 0.0 | 5.2 | 0.00 | 0.10 | 0.00 | 85 | 1006.0 |
| 20260507052931 | 57 | 258 | 1.7 | 8.7 | 0.00 | 0.10 | 0.00 | 88 | 1006.3 |
| 20260507051431 | 57 | 240 | 0.0 | 7.8 | 0.00 | 0.10 | 0.00 | 89 | 1006.1 |
| 20260507045931 | 58 | 262 | 0.0 | 1.7 | 0.00 | 0.10 | 0.00 | 90 | 1005.9 |
| 20260507044431 | 58 | 163 | 0.9 | 5.2 | 0.00 | 0.10 | 0.00 | 90 | 1006.0 |
| 20260507042932 | 58 | 251 | 0.0 | 3.5 | 0.00 | 0.10 | 0.00 | 91 | 1005.9 |
| 20260507041432 | 58 | 269 | 0.0 | 3.5 | 0.00 | 0.10 | 0.00 | 91 | 1005.8 |
| 20260507035931 | 59 | 218 | 0.9 | 2.6 | 0.00 | 0.10 | 0.00 | 92 | 1005.8 |
| 20260507034431 | 59 | 236 | 0.0 | 1.7 | 0.00 | 0.10 | 0.10 | 92 | 1006.0 |
| 20260507032931 | 58 | 252 | 0.0 | 1.7 | 0.00 | 0.10 | 0.10 | 92 | 1005.8 |
| 20260507031432 | 58 | 210 | 0.9 | 1.7 | 0.00 | 0.10 | 0.10 | 92 | 1005.7 |
| 20260507025932 | 58 | 240 | 0.0 | 1.7 | 0.00 | 0.10 | 0.10 | 92 | 1005.6 |
| 20260507024432 | 58 | 244 | 0.0 | 1.7 | 0.00 | 0.10 | 0.10 | 92 | 1005.5 |
| 20260507022931 | 58 | 247 | 0.0 | 2.6 | 0.00 | 0.10 | 0.10 | 92 | 1005.6 |
| 20260507021433 | 58 | 246 | 0.0 | 1.7 | 0.00 | 0.10 | 0.10 | 92 | 1005.4 |
| 20260507015933 | 58 | 234 | 0.9 | 2.6 | 0.00 | 0.10 | 0.10 | 92 | 1005.7 |
| 20260507014432 | 58 | 240 | 0.0 | 1.7 | 0.00 | 0.10 | 0.10 | 92 | 1005.5 |
| 20260507012932 | 58 | 250 | 0.0 | 1.7 | 0.00 | 0.10 | 0.10 | 92 | 1005.7 |
| 20260507011432 | 58 | 242 | 0.9 | 1.7 | 0.00 | 0.10 | 0.10 | 92 | 1005.9 |
| 20260507005932 | 57 | 236 | 0.0 | 1.7 | 0.00 | 0.10 | 0.10 | 92 | 1005.9 |
| 20260507004431 | 57 | 219 | 0.0 | 1.7 | 0.00 | 0.10 | 0.10 | 92 | 1005.9 |
| 20260507002931 | 57 | 220 | 0.0 | 2.6 | 0.01 | 0.10 | 0.10 | 92 | 1005.9 |
| 20260507001434 | 57 | 243 | 0.9 | 3.5 | 0.02 | 0.10 | 0.10 | 92 | 1005.7 |
| 20260506235932 | 57 | 136 | 0.0 | 2.6 | 0.03 | 0.10 | 0.10 | 92 | 1005.6 |
| 20260506234431 | 58 | 157 | 0.0 | 1.7 | 0.03 | 0.10 | 0.10 | 91 | 1005.5 |
| 20260506232932 | 58 | 148 | 0.9 | 2.6 | 0.02 | 0.09 | 0.09 | 91 | 1005.4 |
| 20260506231431 | 58 | 148 | 0.0 | 2.6 | 0.01 | 0.08 | 0.08 | 91 | 1005.4 |
| 20260506225933 | 58 | 153 | 0.0 | 2.6 | 0.00 | 0.07 | 0.07 | 91 | 1005.5 |
| 20260506224431 | 59 | 143 | 0.9 | 2.6 | 0.00 | 0.07 | 0.07 | 91 | 1005.5 |
| 20260506222931 | 59 | 133 | 0.9 | 1.7 | 0.01 | 0.07 | 0.07 | 91 | 1005.5 |
| 20260506221431 | 59 | 157 | 0.9 | 3.5 | 0.02 | 0.07 | 0.07 | 91 | 1005.8 |
| 20260506215932 | 59 | 175 | 0.9 | 2.6 | 0.03 | 0.07 | 0.07 | 91 | 1005.7 |
| 20260506214431 | 59 | 217 | 0.0 | 2.6 | 0.03 | 0.07 | 0.07 | 90 | 1005.8 |
| 20260506212932 | 60 | 210 | 0.9 | 2.6 | 0.02 | 0.06 | 0.06 | 90 | 1006.1 |
| 20260506211431 | 60 | 254 | 0.9 | 6.1 | 0.02 | 0.05 | 0.05 | 89 | 1006.1 |
| 20260506205934 | 60 | 123 | 0.0 | 4.3 | 0.01 | 0.04 | 0.04 | 89 | 1006.2 |
| 20260506204432 | 60 | 231 | 0.9 | 2.6 | 0.02 | 0.04 | 0.04 | 89 | 1006.5 |
| 20260506202932 | 61 | 207 | 0.0 | 4.3 | 0.03 | 0.04 | 0.04 | 88 | 1006.8 |
| 20260506201434 | 61 | 158 | 0.9 | 3.5 | 0.03 | 0.03 | 0.03 | 87 | 1006.7 |
| 20260506195932 | 62 | 248 | 0.9 | 3.5 | 0.03 | 0.03 | 0.03 | 86 | 1006.6 |
| 20260506194434 | 63 | 98 | 0.0 | 2.6 | 0.02 | 0.02 | 0.02 | 86 | 1006.4 |
| 20260506192931 | 64 | 257 | 0.0 | 3.5 | 0.01 | 0.01 | 0.01 | 83 | 1006.8 |
| 20260506191433 | 65 | 207 | 0.9 | 2.6 | 0.00 | 0.00 | 0.00 | 80 | 1006.9 |
| 20260506185931 | 67 | 172 | 0.9 | 2.6 | 0.00 | 0.00 | 0.00 | 75 | 1006.8 |
| 20260506184434 | 68 | 223 | 2.6 | 5.2 | 0.00 | 0.00 | 0.00 | 69 | 1006.6 |
| 20260506182933 | 70 | 243 | 0.9 | 1.7 | 0.00 | 0.00 | 0.00 | 67 | 1006.9 |
| 20260506181435 | 70 | 148 | 0.9 | 4.3 | 0.00 | 0.00 | 0.00 | 65 | 1006.9 |
| 20260506175931 | 71 | 243 | 1.7 | 7.0 | 0.00 | 0.00 | 0.00 | 63 | 1007.1 |
| 20260506174434 | 72 | 226 | 2.6 | 7.8 | 0.00 | 0.00 | 0.00 | 60 | 1007.0 |
| 20260506172934 | 73 | 259 | 0.9 | 5.2 | 0.00 | 0.00 | 0.00 | 61 | 1007.2 |
| 20260506171433 | 73 | 236 | 3.5 | 7.0 | 0.00 | 0.00 | 0.00 | 59 | 1007.3 |
| 20260506165934 | 73 | 269 | 2.6 | 7.0 | 0.00 | 0.00 | 0.00 | 61 | 1007.3 |
| 20260506164433 | 72 | 116 | 2.6 | 7.8 | 0.00 | 0.00 | 0.00 | 61 | 1007.6 |
| 20260506162935 | 72 | 119 | 0.0 | 7.0 | 0.00 | 0.00 | 0.00 | 63 | 1007.7 |
| 20260506161433 | 72 | 184 | 0.9 | 4.3 | 0.00 | 0.00 | 0.00 | 65 | 1007.9 |
| 20260506155934 | 72 | 148 | 0.0 | 2.6 | 0.00 | 0.00 | 0.00 | 65 | 1008.2 |
| 20260506154433 | 71 | 131 | 1.7 | 5.2 | 0.00 | 0.00 | 0.00 | 64 | 1008.4 |
| 20260506152934 | 72 | 124 | 0.9 | 4.3 | 0.00 | 0.00 | 0.00 | 63 | 1008.7 |
| 20260506151432 | 72 | 239 | 0.9 | 7.8 | 0.00 | 0.00 | 0.00 | 64 | 1008.8 |
| 20260506145934 | 72 | 233 | 1.7 | 6.1 | 0.00 | 0.00 | 0.00 | 64 | 1008.9 |
| 20260506144431 | 71 | 150 | 0.9 | 6.1 | 0.00 | 0.00 | 0.00 | 66 | 1008.8 |
| 20260506142930 | 70 | 143 | 1.7 | 5.2 | 0.00 | 0.00 | 0.00 | 67 | 1008.7 |
| 20260506141431 | 69 | 230 | 0.9 | 4.3 | 0.00 | 0.00 | 0.00 | 69 | 1008.6 |
| 20260506135936 | 68 | 194 | 0.9 | 2.6 | 0.00 | 0.00 | 0.00 | 72 | 1008.7 |
| 20260506134437 | 67 | 124 | 1.7 | 5.2 | 0.00 | 0.00 | 0.00 | 74 | 1008.7 |
| 20260506132935 | 66 | 271 | 0.0 | 3.5 | 0.00 | 0.00 | 0.00 | 76 | 1009.4 |
| 20260506131433 | 66 | 172 | 0.9 | 4.3 | 0.00 | 0.00 | 0.00 | 76 | 1009.5 |
| 20260506125931 | 65 | 165 | 1.7 | 3.5 | 0.00 | 0.00 | 0.00 | 77 | 1009.3 |
| 20260506124434 | 64 | 172 | 1.7 | 2.6 | 0.00 | 0.00 | 0.00 | 79 | 1009.5 |
| 20260506122935 | 63 | 259 | 0.0 | 2.6 | 0.00 | 0.00 | 0.00 | 81 | 1009.6 |
| 20260506121435 | 62 | 238 | 0.9 | 2.6 | 0.00 | 0.00 | 0.00 | 82 | 1009.4 |
| 20260506115935 | 60 | 146 | 0.9 | 2.6 | 0.00 | 0.00 | 0.00 | 84 | 1009.5 |
| 20260506114432 | 60 | 165 | 0.9 | 5.2 | 0.00 | 0.00 | 0.00 | 84 | 1009.7 |
| 20260506112933 | 60 | 207 | 0.9 | 5.2 | 0.00 | 0.00 | 0.00 | 85 | 1009.9 |
| 20260506111437 | 59 | 211 | 0.9 | 2.6 | 0.00 | 0.00 | 0.00 | 85 | 1009.7 |
| 20260506105937 | 59 | 155 | 0.9 | 2.6 | 0.00 | 0.00 | 0.00 | 85 | 1009.5 |
| 20260506104436 | 59 | 160 | 0.0 | 2.6 | 0.00 | 0.00 | 0.00 | 85 | 1009.7 |
| 20260506102933 | 59 | 252 | 0.9 | 1.7 | 0.00 | 0.00 | 0.00 | 85 | 1009.8 |
| 20260506101433 | 59 | 240 | 0.0 | 2.6 | 0.00 | 0.00 | 0.00 | 85 | 1009.7 |
| 20260506095933 | 59 | 229 | 0.0 | 1.7 | 0.00 | 0.00 | 0.00 | 85 | 1009.6 |
| 20260506094437 | 59 | 335 | 0.0 | 2.6 | 0.00 | 0.00 | 0.00 | 84 | 1009.4 |
| 20260506092936 | 59 | 137 | 0.9 | 2.6 | 0.00 | 0.00 | 0.00 | 84 | 1009.6 |
| 20260506091432 | 59 | 136 | 0.0 | 2.6 | 0.00 | 0.00 | 0.00 | 84 | 1009.5 |
| 20260506085932 | 60 | 94 | 0.9 | 1.7 | 0.00 | 0.00 | 0.00 | 83 | 1009.4 |
| 20260506084432 | 60 | 105 | 1.7 | 4.3 | 0.00 | 0.00 | 0.00 | 82 | 1009.7 |
| 20260506082939 | 60 | 243 | 0.9 | 4.3 | 0.00 | 0.00 | 0.00 | 82 | 1009.6 |
| 20260506081437 | 60 | 236 | 0.0 | 5.2 | 0.00 | 0.00 | 0.00 | 81 | 1009.7 |
| 20260506072934 | 61 | 246 | 1.7 | 6.1 | 0.00 | 0.00 | 0.00 | 79 | 1009.5 |
| 20260506071434 | 61 | 194 | 1.7 | 5.2 | 0.00 | 0.00 | 0.00 | 79 | 1009.5 |